Weather History for Provo, UT

Change the Weather History Date:

Friday, November 16, 2012

  Actual Average Record
Temperature  
Mean Temperature 38 °F -  
Max Temperature 44 °F 45 °F 64 °F (1999)
Min Temperature 32 °F 28 °F 21 °F (2000)
Degree Days  
Heating Degree Days 27    
Moisture  
Dew Point 34 °F    
Average Humidity 89    
Maximum Humidity 100    
Minimum Humidity 66    
Precipitation  
Precipitation 0.01 in - - ()
Sea Level Pressure  
Sea Level Pressure 30.13 in    
Wind  
Wind Speed 3 mph (WSW)    
Max Wind Speed 17 mph    
Max Gust Speed -    
Visibility 9 miles    
Events      
Averages and records for this station are not official NWS values.
T = Trace of Precipitation, MM = Missing Value Source: NWS Daily Summary

Daily Weather History Graph

Daily Weather History Graph

Search for Another Location

Airport:

Trip Planner

Search our weather history database for the weather conditions in past years. The results will help you decide how hot, cold, wet, or windy it might be!

Date:

Astronomy

Nov. 16, 2012 Rise Set
Actual Time 7:14 AM MST 5:08 PM MST
Civil Twilight 6:45 AM MST 5:38 PM MST
Nautical Twilight 6:12 AM MST 6:10 PM MST
Astronomical Twilight 5:39 AM MST 6:43 PM MST
Moon 10:12 AM MST (11/16) 8:12 PM MST (11/16)
Length of Visible Light 10h 52m
Length of Day
9h 54m
Waxing Crescent, 12% of the Moon is Illuminated
Nov 16
Waxing Crescent
Nov 20
First Quarter
Nov 28
Full
Dec 6
Last Quarter
Dec 13
New

Hourly Weather History & Observations

Time (MST) Temp. Windchill Dew Point Humidity Pressure Visibility Wind Dir Wind Speed Gust Speed Precip Events Conditions
12:55 AM 32.0 °F 28.7 °F 30.2 °F 93% 30.17 in 3.0 mi West 3.5 mph - N/A   Partly Cloudy
1:15 AM 33.8 °F 30.8 °F 28.4 °F 81% 30.17 in 2.0 mi NNW 3.5 mph - N/A   Clear
1:35 AM 33.8 °F - 33.8 °F 100% 30.16 in 2.5 mi Calm Calm - N/A   Clear
1:55 AM 33.8 °F - 32.0 °F 93% 30.16 in 2.5 mi Calm Calm - N/A   Clear
2:15 AM 33.8 °F - 32.0 °F 93% 30.15 in 3.0 mi Calm Calm - N/A   Clear
2:35 AM 33.8 °F - 30.2 °F 87% 30.16 in 3.0 mi Calm Calm - N/A   Clear
2:55 AM 33.8 °F 28.6 °F 32.0 °F 93% 30.16 in 3.0 mi East 5.8 mph - N/A   Clear
3:15 AM 33.8 °F 30.8 °F 33.8 °F 100% 30.15 in 4.0 mi ENE 3.5 mph - N/A   Clear
3:35 AM 35.6 °F 32.8 °F 32.0 °F 87% 30.14 in 7.0 mi SW 3.5 mph - N/A   Mostly Cloudy
3:55 AM 35.6 °F 31.7 °F 33.8 °F 93% 30.13 in 5.0 mi SW 4.6 mph - N/A   Partly Cloudy
4:15 AM 37.4 °F 32.8 °F 33.8 °F 87% 30.13 in 4.0 mi West 5.8 mph - N/A   Clear
4:35 AM 35.6 °F 32.8 °F 33.8 °F 93% 30.13 in 4.0 mi NE 3.5 mph - N/A   Clear
4:55 AM 33.8 °F - 30.2 °F 87% 30.12 in 5.0 mi Calm Calm - N/A   Clear
5:15 AM 33.8 °F - 30.2 °F 87% 30.12 in 5.0 mi Calm Calm - N/A   Clear
5:35 AM 33.8 °F - 30.2 °F 87% 30.12 in 4.0 mi Calm Calm - N/A   Clear
5:55 AM 32.0 °F - 28.4 °F 87% 30.12 in 4.0 mi Calm Calm - N/A   Clear
6:15 AM 33.8 °F 29.6 °F 33.8 °F 100% 30.11 in 3.0 mi North 4.6 mph - N/A   Clear
6:35 AM 35.6 °F - 33.8 °F 93% 30.11 in 4.0 mi Calm Calm - N/A   Clear
7:55 AM 35.6 °F - 33.8 °F 93% 30.13 in 10.0 mi Calm Calm - N/A   Overcast
8:56 AM 37.4 °F - 33.8 °F 87% 30.15 in 10.0 mi Calm Calm - N/A   Overcast
9:48 AM 39.2 °F - 33.8 °F 81% 30.15 in 15.0 mi Calm Calm - N/A   Mostly Cloudy
10:54 AM 39.2 °F 37.0 °F 35.6 °F 87% 30.15 in 15.0 mi SW 3.5 mph - N/A   Overcast
11:55 AM 41.0 °F - 33.8 °F 76% 30.12 in 15.0 mi Calm Calm - N/A   Mostly Cloudy
12:43 PM 42.8 °F - 35.6 °F 76% 30.11 in 15.0 mi Calm Calm - N/A   Mostly Cloudy
1:47 PM 42.8 °F - 35.6 °F 76% 30.15 in 15.0 mi Calm Calm - N/A   Mostly Cloudy
1:59 PM 44.6 °F 37.2 °F 33.8 °F 66% 30.16 in 12.0 mi WSW 17.3 mph - N/A   Mostly Cloudy
2:50 PM 42.8 °F 40.1 °F 39.2 °F 87% 30.13 in 15.0 mi Variable 4.6 mph - N/A   Mostly Cloudy
4:23 PM 42.8 °F 41.1 °F 37.4 °F 81% 30.11 in 15.0 mi Variable 3.5 mph - N/A   Mostly Cloudy
4:50 PM 42.8 °F - 37.4 °F 81% 30.10 in 15.0 mi Calm Calm - N/A   Mostly Cloudy
5:47 PM 39.2 °F - 37.4 °F 93% 30.10 in 15.0 mi Calm Calm - N/A   Mostly Cloudy
6:48 PM 39.2 °F 37.0 °F 37.4 °F 93% 30.11 in 15.0 mi Variable 3.5 mph - N/A   Mostly Cloudy
7:50 PM 41.0 °F - 35.6 °F 81% 30.12 in 15.0 mi Calm Calm - N/A   Overcast
8:47 PM 39.2 °F 35.0 °F 35.6 °F 87% 30.13 in 15.0 mi Variable 5.8 mph - N/A   Overcast
9:15 PM 39.2 °F 35.0 °F 37.4 °F 93% 30.13 in 10.0 mi West 5.8 mph - N/A   Mostly Cloudy
9:35 PM 41.0 °F 37.1 °F 37.4 °F 87% 30.13 in 10.0 mi WSW 5.8 mph - N/A   Overcast
9:55 PM 39.2 °F 35.0 °F 37.4 °F 93% 30.13 in 10.0 mi South 5.8 mph - N/A   Overcast
10:15 PM 39.2 °F - 37.4 °F 93% 30.13 in 10.0 mi Calm Calm - N/A   Overcast
10:35 PM 39.2 °F 35.0 °F 37.4 °F 93% 30.13 in 10.0 mi SSE 5.8 mph - N/A   Overcast
10:55 PM 39.2 °F - 37.4 °F 93% 30.13 in 10.0 mi Calm Calm - N/A   Overcast
11:15 PM 39.2 °F 37.0 °F 37.4 °F 93% 30.13 in 10.0 mi SW 3.5 mph - N/A   Overcast
11:35 PM 39.2 °F 35.0 °F 37.4 °F 93% 30.13 in 10.0 mi SW 5.8 mph - N/A   Mostly Cloudy
11:55 PM 39.2 °F - 37.4 °F 93% 30.13 in 10.0 mi Calm Calm - N/A   Overcast